OE5ERN-10 Weather Reports


time (UTC)temp
C
wind
direction
speed
KPH
gust
KPH
rain 1hr
cm
rain 24hr
cm
rain mn
cm
humidity
%
barometer
mb
20260505124032 31 292 0.0 4.8 0.00 0.00 0.00 26 1009.0
20260505122532 32 90 1.6 1.6 0.00 0.00 0.00 26 1009.1
20260505121032 33 270 0.0 0.0 0.00 0.00 0.00 25 1009.4
20260505115532 32 270 1.6 1.6 0.00 0.00 0.00 27 1009.6
20260505114032 32 247 3.2 3.2 0.00 0.00 0.00 25 1009.7
20260505112532 31 292 3.2 3.2 0.00 0.00 0.00 28 1009.9
20260505111032 31 225 4.8 6.4 0.00 0.00 0.00 29 1010.1
20260505101032 34 270 3.2 4.8 0.00 0.00 0.00 25 1010.8
20260505095532 36 270 1.6 1.6 0.00 0.00 0.00 23 1010.9
20260505094032 38 225 0.0 6.4 0.00 0.00 0.00 22 1011.2
20260505092532 41 225 0.0 0.0 0.00 0.00 0.00 21 1011.3
20260505091033 40 247 0.0 4.8 0.00 0.00 0.00 21 1011.4
20260505085533 40 202 0.0 4.8 0.00 0.00 0.00 22 1011.8
20260505084033 39 270 6.4 6.4 0.00 0.00 0.00 22 1011.9
20260505082533 39 247 0.0 8.0 0.00 0.00 0.00 23 1012.0
20260505081033 37 225 0.0 3.2 0.00 0.00 0.00 24 1012.0
20260505075533 38 180 6.4 6.4 0.00 0.00 0.00 23 1012.1
20260505074033 37 180 0.0 3.2 0.00 0.00 0.00 25 1012.3
20260505072533 35 90 0.0 4.8 0.00 0.00 0.00 26 1012.2
20260505071033 38 90 3.2 3.2 0.00 0.00 0.00 25 1012.4
20260505065533 36 135 0.0 3.2 0.00 0.00 0.00 27 1012.7
20260505064033 33 157 0.0 3.2 0.00 0.00 0.00 31 1012.7
20260505062533 32 112 1.6 1.6 0.00 0.00 0.00 31 1012.7
20260505061033 32 112 0.0 0.0 0.00 0.00 0.00 32 1012.8
20260505055533 29 337 0.0 0.0 0.00 0.00 0.00 38 1012.8
20260505054033 20 337 0.0 0.0 0.00 0.00 0.00 50 1012.9
20260505052533 15 337 0.0 0.0 0.00 0.00 0.00 67 1013.0
20260505051033 15 337 0.0 0.0 0.00 0.00 0.00 67 1012.9
20260505041033 11 315 0.0 0.0 0.00 0.00 0.00 74 1012.9
20260505035533 11 315 3.2 3.2 0.00 0.00 0.00 73 1012.8
20260505034033 11 337 0.0 0.0 0.00 0.00 0.00 71 1012.8
20260505032533 12 337 1.6 3.2 0.00 0.00 0.00 71 1012.9
20260505031033 12 0 0.0 0.0 0.00 0.00 0.00 69 1013.0
20260505025533 12 0 0.0 0.0 0.00 0.00 0.00 69 1013.0
20260505024033 12 315 0.0 0.0 0.00 0.00 0.00 68 1013.0
20260505022533 13 337 0.0 1.6 0.00 0.00 0.00 66 1013.0
20260505021033 14 292 0.0 0.0 0.00 0.00 0.00 64 1013.0
20260505015533 14 337 0.0 3.2 0.00 0.00 0.00 64 1013.1
20260505014033 14 337 0.0 3.2 0.00 0.00 0.00 62 1013.2
20260505012533 15 292 3.2 6.4 0.00 0.00 0.00 62 1013.3
20260505011033 15 292 8.0 8.0 0.00 0.00 0.00 62 1013.3
20260505005533 15 337 4.8 4.8 0.00 0.00 0.00 61 1013.6
20260505004033 15 337 0.0 3.2 0.00 0.00 0.00 60 1013.7
20260505002533 15 315 3.2 3.2 0.00 0.00 0.00 59 1013.5
20260505001033 16 292 4.8 4.8 0.00 0.00 0.00 56 1013.9
20260504235534 16 292 0.0 0.0 0.00 0.00 0.00 55 1013.9
20260504234033 17 247 3.2 3.2 0.00 0.00 0.00 54 1013.9
20260504232533 18 247 0.0 0.0 0.00 0.00 0.00 52 1013.9
20260504231033 18 225 0.0 11.3 0.00 0.00 0.00 51 1013.8
20260504225533 18 67 1.6 9.7 0.00 0.00 0.00 50 1013.3
20260504224033 19 22 4.8 4.8 0.00 0.00 0.00 49 1013.4
20260504222533 19 67 6.4 6.4 0.00 0.00 0.00 50 1013.4
20260504221033 19 90 4.8 9.7 0.00 0.00 0.00 51 1013.6
20260504215534 19 0 1.6 4.8 0.00 0.00 0.00 50 1013.9
20260504214034 19 45 3.2 24.1 0.00 0.00 0.00 50 1014.1
20260504212534 18 315 4.8 12.9 0.00 0.00 0.00 51 1014.3
20260504211034 19 0 9.7 12.9 0.00 0.00 0.00 51 1014.6
20260504205534 18 292 9.7 9.7 0.00 0.00 0.00 51 1014.5
20260504204034 18 247 0.0 3.2 0.00 0.00 0.00 50 1014.5
20260504202534 18 270 3.2 6.4 0.00 0.00 0.00 50 1014.0
20260504201034 18 337 6.4 6.4 0.00 0.00 0.00 49 1013.9
20260504195534 18 22 0.0 3.2 0.00 0.00 0.00 48 1013.8
20260504194034 19 337 1.6 8.0 0.00 0.00 0.00 23 1013.6
20260504192534 19 0 1.6 3.2 0.00 0.00 0.00 48 1013.7
20260504191034 20 337 6.4 11.3 0.00 0.00 0.00 48 1013.7
20260504185534 20 315 1.6 1.6 0.00 0.00 0.00 47 1013.3
20260504184034 21 0 4.8 4.8 0.00 0.00 0.00 45 1013.2
20260504182534 21 337 0.0 6.4 0.00 0.00 0.00 44 1013.1
20260504181034 22 315 3.2 4.8 0.00 0.00 0.00 43 1013.1
20260504175534 23 337 4.8 4.8 0.00 0.00 0.00 40 1013.1
20260504174034 25 337 3.2 3.2 0.00 0.00 0.00 37 1012.9
20260504172534 26 337 3.2 6.4 0.00 0.00 0.00 36 1012.9
20260504171034 26 22 0.0 0.0 0.00 0.00 0.00 34 1012.9
20260504151034 30 67 0.0 0.0 0.00 0.00 0.00 23 1013.6
20260504141034 30 202 0.0 4.8 0.00 0.00 0.00 25 1014.4